Location: Antichan
(42.9728°N, 0.6667°E)
Time: 09:04:04
(UTC+00:00)

Cosmos 1741 Rocket - Pass Details

Date: 15 August 2020
Orbit: 760 x 783 km, 74.0° (Epoch: 18 September)

Event Time Altitude Azimuth Distance (km) Brightness Sun altitude
Rises 20:53:36 0° 201° (SSW) 3,218 7.0 -18.9°
Reaches altitude 10° 20:55:57 10° 203° (SSW) 2,299 6.3 -19.2°
Maximum altitude 21:01:11 81° 291° (WNW) 786 4.0 -19.9°
Drops below altitude 10° 21:06:29 10° 18° (NNE) 2,331 6.8 -20.6°
Sets 21:08:53 0° 20° (NNE) 3,266 7.6 -20.9°
